NC9W-13 Weather Reports


time (UTC)temp
F
wind
direction
speed
knots
gust
knots
rain 1hr
in
rain 24hr
in
rain mn
in
humidity
%
barometer
mb
20260509053503 56 0 0.0 0.0 0.00 0.03 0.00 71 1008.5
20260509053003 57 0 0.0 0.0 0.00 0.03 0.00 71 1008.4
20260509052503 57 0 0.0 0.0 0.00 0.03 0.00 70 1008.4
20260509052003 57 0 0.0 0.0 0.00 0.03 0.00 70 1008.4
20260509051718 57 0 0.0 0.0 0.00 0.03 0.00 69 1008.4
20260509051003 57 0 0.0 0.0 0.00 0.03 0.00 68 1008.4
20260509050503 57 0 0.0 0.0 0.00 0.03 0.00 68 1008.4
20260509050003 57 0 0.0 0.0 0.00 0.03 0.00 68 1008.5
20260509045503 58 0 0.0 0.0 0.00 0.03 0.00 67 1008.5
20260509045003 58 0 0.0 0.0 0.00 0.03 0.00 66 1008.4
20260509044503 58 0 0.0 0.0 0.00 0.03 0.00 66 1008.4
20260509044003 58 0 0.0 0.0 0.00 0.03 0.00 67 1008.3
20260509043503 58 0 0.0 0.0 0.00 0.03 0.00 67 1008.3
20260509043003 58 0 0.0 0.0 0.00 0.03 0.00 67 1008.4
20260509042503 58 0 0.0 0.0 0.00 0.03 0.00 67 1008.3
20260509042003 57 0 0.0 0.0 0.00 0.03 0.00 67 1008.3
20260509041718 57 0 0.0 0.0 0.00 0.03 0.00 69 1008.4
20260509041217 57 0 0.0 0.0 0.00 0.03 0.00 70 1008.4
20260509040503 57 0 0.0 0.0 0.00 0.03 0.00 68 1008.5
20260509040004 57 0 0.0 0.0 0.00 0.03 0.00 68 1008.6
20260509035717 57 0 0.0 0.0 0.00 0.03 0.00 68 1008.7
20260509035216 58 0 0.0 0.0 0.00 0.03 0.00 67 1008.8
20260509034503 58 0 0.0 0.0 0.00 0.03 0.00 67 1008.7
20260509034216 58 0 0.0 0.0 0.00 0.03 0.00 68 1008.6
20260509033503 58 0 0.0 0.0 0.00 0.03 0.00 66 1008.6
20260509033003 58 0 0.0 0.0 0.00 0.03 0.00 65 1008.7
20260509032503 58 0 0.0 0.0 0.00 0.03 0.00 64 1008.7
20260509032003 59 0 0.0 0.0 0.00 0.03 0.00 64 1008.9
20260509031503 59 0 0.0 0.0 0.00 0.03 0.00 64 1009.0
20260509031218 59 0 0.0 0.0 0.00 0.03 0.00 64 1009.1
20260509030503 59 0 0.0 0.0 0.00 0.03 0.00 64 1009.1
20260509030003 59 0 0.0 0.0 0.00 0.03 0.00 63 1009.1
20260509025717 59 0 0.0 0.0 0.00 0.03 0.00 63 1009.2
20260509025003 59 0 0.0 0.0 0.00 0.03 0.00 63 1009.3
20260509024717 59 0 0.0 0.0 0.00 0.03 0.00 63 1009.3
20260509024003 59 0 0.0 0.0 0.00 0.03 0.00 64 1009.3
20260509023503 59 0 0.0 0.0 0.00 0.03 0.00 65 1009.3
20260509023003 59 0 0.0 0.0 0.00 0.03 0.00 66 1009.3
20260509022503 59 0 0.0 0.0 0.00 0.03 0.00 66 1009.3
20260509022003 59 0 0.0 0.0 0.00 0.03 0.00 64 1009.2
20260509021503 59 0 0.0 0.0 0.00 0.03 0.00 63 1009.2
20260509021003 59 0 0.0 0.0 0.00 0.03 0.00 64 1009.3
20260509020503 59 0 0.0 0.0 0.00 0.03 0.00 62 1009.4
20260509020003 59 0 0.0 0.0 0.00 0.03 0.00 61 1009.3
20260509015503 59 0 0.0 0.0 0.00 0.03 0.00 61 1009.3
20260509015003 59 0 0.0 0.0 0.00 0.03 0.00 61 1009.2
20260509014503 59 0 0.0 0.0 0.00 0.03 0.00 61 1009.2
20260509014218 59 0 0.0 0.0 0.00 0.03 0.00 60 1009.3
20260509013503 60 0 0.0 0.0 0.00 0.03 0.00 59 1009.3
20260509013003 60 0 0.0 0.0 0.00 0.03 0.00 59 1009.3
20260509012503 60 0 0.0 0.0 0.00 0.03 0.00 59 1009.3
20260509012003 60 0 0.0 0.0 0.00 0.03 0.00 59 1009.2
20260509011503 61 0 0.0 0.0 0.00 0.03 0.00 58 1009.2
20260509011003 61 0 0.0 0.0 0.00 0.03 0.00 57 1009.3
20260509010716 61 0 0.0 0.0 0.00 0.03 0.00 57 1009.3
20260509010217 61 0 0.0 0.0 0.00 0.03 0.00 59 1009.2
20260509005503 62 0 0.0 0.0 0.00 0.03 0.00 58 1009.2
20260509005003 62 0 0.0 0.0 0.00 0.03 0.00 58 1009.2
20260509004503 63 210 0.0 3.5 0.00 0.03 0.00 57 1009.2
20260509004217 63 210 0.0 3.5 0.00 0.03 0.00 56 1009.2
20260509003503 63 0 0.0 0.0 0.00 0.03 0.00 55 1009.3
20260509003003 64 0 0.0 0.0 0.00 0.03 0.00 54 1009.2
20260509002503 64 0 0.0 0.0 0.00 0.03 0.00 54 1009.3
20260509002003 65 0 0.0 0.0 0.00 0.03 0.00 54 1009.3
20260509001503 65 0 0.0 0.0 0.00 0.03 0.00 54 1009.3
20260509001003 66 0 0.0 0.0 0.00 0.03 0.00 51 1009.3
20260509000718 66 210 0.0 3.5 0.00 0.03 0.00 52 1009.3
20260509000003 66 210 0.0 3.5 0.00 0.03 0.00 51 1009.3
20260508235718 66 210 0.0 3.5 0.00 0.03 0.00 52 1009.4
20260508235003 66 210 0.0 3.5 0.00 0.03 0.00 53 1009.4
20260508234503 66 210 0.0 5.2 0.00 0.03 0.00 51 1009.5
20260508234003 67 210 0.0 5.2 0.00 0.03 0.00 51 1009.5
20260508233503 67 0 0.0 0.0 0.00 0.03 0.00 50 1009.5
20260508233003 67 210 0.0 5.2 0.00 0.03 0.00 50 1009.5
20260508232503 67 210 0.0 5.2 0.00 0.03 0.00 49 1009.5
20260508232003 68 210 0.0 3.5 0.00 0.03 0.00 48 1009.6
20260508231503 68 210 0.0 3.5 0.00 0.03 0.00 49 1009.7
20260508231003 68 210 0.0 3.5 0.00 0.03 0.00 49 1009.8
20260508230503 68 210 0.0 3.5 0.00 0.03 0.00 48 1009.8
20260508230003 68 210 0.0 5.2 0.00 0.03 0.00 47 1009.9
20260508225503 68 210 1.7 7.0 0.00 0.03 0.00 49 1009.9
20260508225003 69 210 1.7 7.0 0.00 0.03 0.00 47 1009.8
20260508224503 69 210 1.7 10.4 0.00 0.03 0.00 47 1009.7
20260508224003 69 210 1.7 10.4 0.00 0.03 0.00 46 1009.7
20260508223717 69 210 0.0 7.0 0.00 0.03 0.00 47 1009.7
20260508223003 69 210 0.0 3.5 0.00 0.03 0.00 47 1009.6
20260508222503 69 210 1.7 5.2 0.00 0.03 0.00 47 1009.7
20260508222003 69 210 1.7 12.2 0.00 0.03 0.00 46 1009.6
20260508221503 70 210 0.0 12.2 0.00 0.03 0.00 47 1009.7
20260508221003 70 210 0.0 7.0 0.00 0.03 0.00 47 1009.7
20260508220503 70 210 0.0 7.0 0.00 0.03 0.00 45 1009.8
20260508220003 70 210 0.0 5.2 0.00 0.03 0.00 46 1009.7
20260508215503 70 210 0.0 5.2 0.00 0.03 0.00 49 1009.7
20260508215216 70 210 0.0 5.2 0.00 0.03 0.00 45 1009.7
20260508214503 70 210 1.7 5.2 0.00 0.03 0.00 46 1009.5
20260508214003 70 210 1.7 5.2 0.00 0.03 0.00 46 1009.6
20260508213503 70 210 0.0 5.2 0.00 0.03 0.00 45 1009.7
20260508213003 70 210 0.0 5.2 0.00 0.03 0.00 48 1009.8
20260508212503 70 210 0.0 3.5 0.00 0.03 0.00 44 1009.7
20260508212003 71 210 0.0 3.5 0.00 0.03 0.00 44 1009.8
20260508211503 71 210 0.0 3.5 0.00 0.03 0.00 47 1009.8
20260508211003 71 210 1.7 5.2 0.00 0.03 0.00 42 1009.9
20260508210503 71 210 0.0 5.2 0.00 0.03 0.00 51 1010.0
20260508210003 71 210 0.0 3.5 0.00 0.03 0.00 46 1010.0
20260508205503 71 210 0.0 3.5 0.00 0.03 0.00 44 1010.0
20260508205003 71 210 1.7 8.7 0.00 0.03 0.00 45 1010.1
20260508204503 71 210 1.7 8.7 0.00 0.03 0.00 46 1009.9
20260508204003 71 210 1.7 5.2 0.00 0.03 0.00 44 1010.1
20260508203503 71 210 1.7 10.4 0.00 0.03 0.00 46 1010.3
20260508203218 71 210 1.7 10.4 0.00 0.03 0.00 45 1010.4
20260508202503 72 210 1.7 10.4 0.00 0.03 0.00 43 1010.5
20260508202218 72 210 1.7 5.2 0.00 0.03 0.00 44 1010.5
20260508201503 72 210 1.7 3.5 0.00 0.03 0.00 44 1010.8
20260508201003 72 210 1.7 5.2 0.00 0.03 0.00 42 1010.9
20260508200503 72 210 1.7 5.2 0.00 0.03 0.00 43 1011.0
20260508200003 73 210 1.7 5.2 0.00 0.03 0.00 40 1011.0
20260508195503 73 210 1.7 5.2 0.00 0.03 0.00 46 1011.2
20260508195218 73 210 0.0 5.2 0.00 0.03 0.00 47 1011.2
20260508194503 73 210 0.0 3.5 0.00 0.03 0.00 40 1011.3
20260508194218 73 210 0.0 5.2 0.00 0.03 0.00 40 1011.4
20260508193503 73 210 1.7 8.7 0.00 0.03 0.00 42 1011.6
20260508193003 73 210 1.7 10.4 0.00 0.03 0.00 40 1011.5
20260508192503 73 210 1.7 12.2 0.00 0.03 0.00 41 1011.5
20260508192003 73 210 1.7 12.2 0.00 0.03 0.00 40 1011.4
20260508191716 73 210 0.0 3.5 0.00 0.03 0.00 43 1011.4
20260508191217 73 210 0.0 3.5 0.00 0.03 0.00 42 1011.4
20260508190503 73 210 0.0 3.5 0.00 0.03 0.00 46 1011.4
20260508190217 73 210 1.7 10.4 0.00 0.03 0.00 41 1011.3
20260508185503 73 210 1.7 13.9 0.00 0.03 0.00 40 1011.4
20260508185217 73 210 1.7 13.9 0.00 0.03 0.00 44 1011.4
20260508184504 73 210 3.5 12.2 0.00 0.03 0.00 42 1011.4
20260508184003 73 210 3.5 12.2 0.00 0.03 0.00 38 1011.5
20260508183503 74 210 1.7 8.7 0.00 0.03 0.00 40 1011.6
20260508183217 74 210 1.7 8.7 0.00 0.03 0.00 40 1011.6
20260508182718 74 210 1.7 8.7 0.00 0.03 0.00 43 1011.6
20260508182003 74 210 1.7 10.4 0.00 0.03 0.00 41 1011.8
20260508181503 74 210 1.7 10.4 0.00 0.03 0.00 44 1011.9
20260508181217 74 210 1.7 10.4 0.00 0.03 0.00 41 1012.0
20260508180503 73 210 0.0 5.2 0.00 0.03 0.00 41 1012.2
20260508180003 72 210 0.0 3.5 0.00 0.03 0.00 39 1012.3
20260508175503 72 210 3.5 12.2 0.00 0.03 0.00 40 1012.4
20260508175003 72 210 3.5 15.6 0.00 0.03 0.00 38 1012.5
20260508174503 73 210 1.7 15.6 0.00 0.03 0.00 41 1012.6
20260508174003 73 210 3.5 15.6 0.00 0.03 0.00 41 1012.7
20260508173503 73 210 3.5 15.6 0.00 0.03 0.00 40 1012.9
20260508173003 73 210 3.5 13.9 0.00 0.03 0.00 43 1013.0
20260508172718 73 210 3.5 13.9 0.02 0.03 0.00 43 1013.1
20260508172003 74 210 0.0 3.5 0.02 0.03 0.00 41 1013.3
20260508171718 74 210 0.0 5.2 0.02 0.03 0.00 43 1013.3
20260508171216 74 210 1.7 7.0 0.02 0.03 0.00 43 1013.4
20260508170503 74 210 1.7 10.4 0.02 0.03 0.00 41 1013.5
20260508170003 74 210 1.7 10.4 0.02 0.03 0.00 42 1013.4
20260508165503 74 210 1.7 7.0 0.02 0.03 0.00 41 1013.6
20260508165216 75 210 1.7 7.0 0.02 0.03 0.00 40 1013.6
20260508164717 76 210 3.5 12.2 0.03 0.03 0.00 40 1013.7
20260508164216 77 210 3.5 12.2 0.03 0.03 0.03 38 1013.8
20260508163503 82 210 0.0 3.5 0.03 0.03 0.03 32 1013.9
20260508163218 84 210 0.0 3.5 0.03 0.03 0.03 31 1014.0
20260508162717 88 0 0.0 0.0 0.01 0.01 0.03 30 1014.1
20260508162003 90 210 0.0 1.7 0.01 0.01 0.01 30 1014.3
20260508161503 87 0 0.0 0.0 0.01 0.01 0.01 34 1014.4
20260508161003 84 0 0.0 0.0 0.01 0.01 0.01 34 1014.6
20260508160503 79 0 0.0 0.0 0.01 0.01 0.01 41 1014.7
20260508160003 75 210 0.0 1.7 0.01 0.01 0.01 43 1014.7
20260508155503 73 210 0.0 3.5 0.01 0.01 0.01 50 1014.7
20260508155003 72 210 0.0 3.5 0.00 0.00 0.00 46 1014.7
20260508154503 72 210 1.7 3.5 0.00 0.00 0.00 46 1014.8
20260508154003 72 210 0.0 3.5 0.00 0.00 0.00 45 1014.8
20260508153503 71 0 0.0 0.0 0.00 0.00 0.00 47 1014.9
20260508153003 71 0 0.0 3.5 0.00 0.00 0.00 48 1015.0
20260508152503 70 210 0.0 3.5 0.00 0.00 0.00 46 1015.0
20260508152003 70 210 0.0 5.2 0.00 0.00 0.00 48 1015.1
20260508151503 70 210 0.0 5.2 0.00 0.00 0.00 46 1015.2
20260508151003 69 0 0.0 0.0 0.00 0.00 0.00 47 1015.3
20260508150503 69 0 0.0 0.0 0.00 0.00 0.00 48 1015.3
20260508150004 69 0 0.0 0.0 0.00 0.00 0.00 48 1015.3
20260508145717 69 0 0.0 0.0 0.00 0.00 0.00 46 1015.3
20260508145003 69 210 0.0 1.7 0.00 0.00 0.00 49 1015.4
20260508144503 69 0 0.0 0.0 0.00 0.00 0.00 50 1015.4
20260508144218 68 0 0.0 0.0 0.00 0.00 0.00 50 1015.4
20260508143503 68 210 0.0 1.7 0.00 0.00 0.00 46 1015.3
20260508143003 68 210 0.0 3.5 0.00 0.00 0.00 49 1015.3
20260508142503 69 210 0.0 3.5 0.00 0.00 0.00 47 1015.4
20260508142003 69 0 0.0 0.0 0.00 0.00 0.00 50 1015.4
20260508141503 68 0 0.0 0.0 0.00 0.00 0.00 48 1015.4
20260508141003 68 0 0.0 0.0 0.00 0.00 0.00 49 1015.3
20260508140503 68 210 0.0 1.7 0.00 0.00 0.00 49 1015.3
20260508140003 67 210 0.0 1.7 0.00 0.00 0.00 49 1015.3
20260508135718 67 210 0.0 3.5 0.00 0.00 0.00 49 1015.3
20260508135003 67 210 0.0 3.5 0.00 0.00 0.00 52 1015.3
20260508134503 66 210 0.0 3.5 0.00 0.00 0.00 52 1015.4
20260508134003 66 210 0.0 3.5 0.00 0.00 0.00 54 1015.4
20260508133503 66 210 0.0 3.5 0.00 0.00 0.00 55 1015.3
20260508133003 65 210 0.0 3.5 0.00 0.00 0.00 56 1015.3
20260508132718 65 210 0.0 5.2 0.00 0.00 0.00 55 1015.3
20260508132217 64 210 0.0 5.2 0.00 0.00 0.00 56 1015.3
20260508131503 64 210 0.0 3.5 0.00 0.00 0.00 55 1015.3
20260508131003 63 210 0.0 1.7 0.00 0.00 0.00 57 1015.4
20260508130503 63 210 0.0 1.7 0.00 0.00 0.00 60 1015.4
20260508130003 62 210 0.0 1.7 0.00 0.00 0.00 61 1015.4
20260508125503 61 210 0.0 1.7 0.00 0.00 0.00 61 1015.4
20260508125003 61 0 0.0 1.7 0.00 0.00 0.00 64 1015.3
20260508124503 59 210 0.0 1.7 0.00 0.00 0.00 67 1015.4
20260508124003 57 210 0.0 3.5 0.00 0.00 0.00 69 1015.4
20260508123503 56 210 0.0 3.5 0.00 0.00 0.00 68 1015.4
20260508123003 55 210 1.7 3.5 0.00 0.00 0.00 69 1015.4
20260508122503 54 210 1.7 3.5 0.00 0.00 0.00 71 1015.4
20260508122003 53 210 1.7 3.5 0.00 0.00 0.00 71 1015.4
20260508121503 52 210 1.7 3.5 0.00 0.00 0.00 73 1015.3
20260508121003 51 210 1.7 3.5 0.00 0.00 0.00 75 1015.3
20260508120503 50 210 1.7 3.5 0.00 0.00 0.00 77 1015.3
20260508120003 48 210 1.7 3.5 0.00 0.00 0.00 79 1015.3
20260508115503 46 210 0.0 3.5 0.00 0.00 0.00 82 1015.3
20260508115003 44 210 0.0 3.5 0.00 0.00 0.00 84 1015.2
20260508114503 44 210 0.0 3.5 0.00 0.00 0.00 84 1015.2
20260508114003 43 210 1.7 3.5 0.00 0.00 0.00 85 1015.2
20260508113503 42 210 0.0 3.5 0.00 0.00 0.00 86 1015.2
20260508113003 42 210 0.0 1.7 0.00 0.00 0.00 87 1015.1
20260508112503 42 210 0.0 1.7 0.00 0.00 0.00 88 1015.0
20260508112003 41 0 0.0 0.0 0.00 0.00 0.00 88 1014.9
20260508111503 41 0 0.0 0.0 0.00 0.00 0.00 88 1014.8
20260508111003 41 0 0.0 0.0 0.00 0.00 0.00 89 1014.8
20260508110503 40 0 0.0 0.0 0.00 0.00 0.00 89 1014.7
20260508110218 40 0 0.0 0.0 0.00 0.00 0.00 89 1014.7
20260508105717 40 210 0.0 1.7 0.00 0.00 0.00 89 1014.7
20260508105003 40 210 0.0 1.7 0.00 0.00 0.00 89 1014.6
20260508104717 40 0 0.0 0.0 0.00 0.00 0.00 89 1014.6
20260508104003 40 0 0.0 0.0 0.00 0.00 0.00 89 1014.6
20260508103503 40 0 0.0 0.0 0.00 0.00 0.00 89 1014.6
20260508103003 40 0 0.0 0.0 0.00 0.00 0.00 89 1014.6
20260508102503 40 0 0.0 0.0 0.00 0.00 0.00 89 1014.5
20260508102218 40 0 0.0 0.0 0.00 0.00 0.00 89 1014.5
20260508101717 39 0 0.0 0.0 0.00 0.00 0.00 89 1014.7
20260508101218 39 0 0.0 0.0 0.00 0.00 0.00 89 1014.7
20260508055503 41 0 0.0 0.0 0.00 0.00 0.00 88 1015.0
20260508055003 41 0 0.0 0.0 0.00 0.00 0.00 87 1015.0
20260508054503 42 0 0.0 0.0 0.00 0.00 0.00 87 1015.0
20260508054003 42 0 0.0 0.0 0.00 0.00 0.00 87 1015.1